Probability
0 0 0 0 0 0 0 0 0 0 0 0 0 0 0 0 0 0 0 0 0 0 0 0 0 0 0 0 0 0 0 0 0 0 0 0 0 0 0 0 0 0 0
0 0 0 0 0 0 0 0 0 0 0 0 0 0 0 0 0 0 0 0 0 0 0 0 0 0 0 0 0 0 0 0 0 0 0 0 0 0 0 0 0 0 0
0 0 0 0 0 0 0 0 0 0 0 0 0 0 0 0 0 0 0 0 0 0 0 0 0 0 0 0 0 0 0 0 0 0 0 0 0 0 0 0 0 0 0
0 0 0 0 0 0 0 0 0 0 0 0 0 0 0 0 0 0 0 0 0 0 0 0 0 0 0 0 0 0 0 0 0 0 0 0 0 0 0 0 0 0 0
0 0 0 0 0 0 0 0 0 0 0 0 0 0 0 0 0 0 0 0 0 0 0 0 0 0 0 0 0 0 0 0 0 0 0 0 0 0 0 0 0 0 0
0 0 0 0 0 0 0 0 0 0 0 0 0 0 0 0 0 0 0 0 0 0 0 0 0 0 0 0 0 0 0 0 0 0 0 0 0 0 0 0 0 0 0
0 0 0 0 0 0 0 0 0 0 0 0 0 0 0 0 0 0 0 0 0 0 0 0 0 0 0 0 0 0 0 0 0 0 0 0 0 0 0 0 0 0 0
0 0 0 0 0 0 0 0 0 0 0 0 0 0 0 0 0 0 0 0 0 0 0 0 0 0 0 0 0 0 0 0 0 0 0 0 0 0 0 0 0 0 0
0 0 0 0 0 0 0 0 0 0 0 0 0 0 0 0 0 0 0 0 0 0 0 0 0 0 0 0 0 0 0 0 0 0 0 0 0 0 0 0 0 0 0
0 0 0 0 0 0 0 0 0 0 0 0 0 0 0 0 0 0 0 0 0 0 0 0 0 0 0 0 0 0 0 0 0 0 0 0 0 0 0 0 0 0 0
0 0 0 0 0 0 0 0 0 0 0 0 0 0 0 0 0 0 0 0 0 0 0 0 0 0 0 0 0 0 0 0 0 0 0 0 0 0 0 0 0 0 0
0 0 0 0 0 0 0 0 0 0 0 0 0 0 0 0 0 0 0 0 0 0 0 0 0 0 0 0 0 0 0 0 0 0 0 0 0 0 0 0 0 0 0
0 0 0 0 0 0 0 0 0 0 0 0 0 0 0 0 0 0 0 0 0 0 0 0 0 0 0 0 0 0 0 0 0 0 0 0 0 0 0 0 0 0 0
0 0 0 0 0 0 0 0 0 0 0 0 0 0 0 0 0 0 0 0 0 0 0 0 0 0 0 0 0 0 0 0 0 0 0 0 0 0 0 0 0 0 0
0 0 0 0 0 0 0 0 0 0 0 0 0 0 0 0 0 0 0 0 0 0 0 0 0 0 0 0 0 0 0 0 0 0 0 0 0 0 0 0 0 0 0
0 0 0 0 0 0 0 0 0 0 0 0 0 0 0 0 0 0 0 0 0 0 0 0 0 0 0 0 0 0 0 0 0 0 0 0 0 0 0 0 0 0 0
0 0 0 0 0 0 0 0 0 0 0 0 0 0 0 0 0 0 0 0 0 0 0 0 0 0 0 0 0 0 0 0 0 0 0 0 0 0 0 0 0 0 0
0 0 0 0 0 0 0 0 0 0 0 0 0 0 0 0 0 0 0 0 0 0 0 0 0 0 0 0 0 0 0 0 0 0 0 0 0 0 0 0 0 0 0
0 0 0 0 0 0 0 0 0 0 0 0 0 0 0 0 0 0 0 0 0 0 0 0 0 0 0 0 0 0 0 0 0 0 0 0 0 0 0 0 0 0 0
0 0 0 0 0 0 0 0 0 0 0 0 0 0 0 0 0 0 0 0 0 0 0 0 0 0 0 0 0 0 0 0 0 0 0 0 0 0 0 0 0 0 0
0 0 0 0 0 0 0 0 0 0 0 0 0 0 0 0 0 0 0 0 0 0 0 0 0 0 0 0 0 0 0 0 0 0 0 0 0 0 0 0 0 0 0
0 0 0 0 0 0 0 0 0 0 0 0 0 0 0 0 0 0 0 0 0 0 0 0 0 0 0 0 0 0 0 0 0 0 0 0 0 0 0 0 0 0 0
0 0 0 0 0 0 0 0 0 0 0 0 0 0 0 0 0 0 0 0 0 0 0 0 0 0 0 0 0 0 0 0 0 0 0 0 0 0 0 0 0 0 0
0 0 0 0 0 0 0 0 0 0 0 0 0 0 0 0 0 0 0 0 0 0 0 0 0 0 0 0 0 0 0 0 0 0 0 0 0 0 0 0 0 0 0
0 0 0 0 0 0 0 0 0 0 0 0 0 0 0 0 0 0 0 0 0 0 0 0 0 0 0 0 0 0 0 0 0 0 0 0 0 0 0 0 0 0 0
0 0 0 0 0 0 0 0 0 0 0 0 0 0 0 0 0 0 0 0 0 0 0 0 0 0 0 0 0 0 0 0 0 0 0 0 0 0 0 0 0 0 0
Wind_Speed
10 13 17 15 15 13 12 12 11 9 9 10 10 9 9 8 8 7 7 7 8 11 13 14 13 13 13 13 12 11 11 11 11 11 11 13 12 11 10 7 4 9 10
12 14 15 15 16 14 13 12 11 10 10 11 11 10 9 9 9 8 7 8 11 12 12 11 10 10 10 10 10 10 10 10 9 9 7 9 12 10 11 10 10 9 11
12 15 16 13 15 15 13 11 11 10 11 12 12 11 10 10 9 9 9 10 11 11 11 10 9 8 8 8 8 8 8 8 7 6 3 5 8 10 9 9 9 10 10
12 13 14 13 14 14 14 13 12 10 10 11 12 12 12 10 9 8 7 8 9 9 9 9 8 8 8 8 8 8 8 7 6 2 3 5 5 9 8 7 8 9 9
11 12 11 10 13 14 14 14 14 12 12 11 13 13 12 10 8 6 5 6 7 8 8 8 8 8 8 9 9 9 8 7 5 2 4 4 5 9 9 8 7 8 7
12 12 11 10 13 13 13 14 14 14 13 14 14 13 10 9 7 6 5 6 7 8 8 8 8 8 8 9 9 9 8 7 2 5 5 4 5 9 10 9 8 8 8
13 12 12 11 11 11 12 13 14 14 15 15 14 12 10 9 8 7 7 7 8 8 8 9 9 8 8 8 9 9 8 6 5 5 4 4 6 8 9 9 10 9 10
12 12 12 12 10 10 10 11 11 13 14 14 12 11 10 10 9 9 9 9 9 8 9 9 9 8 9 9 9 9 8 4 4 5 5 5 7 6 7 7 7 7 8
11 12 12 14 13 11 11 11 10 11 12 12 12 11 10 10 11 10 9 9 10 10 10 9 9 8 8 8 8 8 8 5 4 4 4 5 6 6 6 6 5 6 6
11 12 13 13 14 14 14 12 11 11 11 12 11 11 11 10 10 9 8 10 11 10 10 9 9 8 8 8 8 8 6 3 5 4 3 5 7 5 5 5 5 5 5
12 13 14 14 14 13 13 12 12 11 11 12 11 12 12 11 11 9 10 9 11 11 10 10 9 9 8 8 7 6 3 3 4 3 4 6 5 4 4 4 4 4 4
17 17 14 15 15 14 11 10 11 11 12 13 12 14 12 10 8 8 7 7 9 10 10 10 9 8 4 4 5 3 3 4 3 3 4 6 4 2 2 2 3 3 4
15 16 16 16 15 15 11 10 8 8 9 13 15 15 11 10 8 7 6 8 9 10 8 8 7 4 3 3 2 3 3 2 2 2 3 6 5 2 1 2 3 4 5
14 15 16 16 15 16 14 11 11 9 9 10 13 15 12 9 9 9 7 8 8 6 7 6 4 5 4 4 3 3 3 2 2 1 2 5 4 2 1 3 4 5 6
16 16 16 17 18 16 15 12 12 12 12 12 11 13 14 11 11 10 8 8 9 7 7 6 6 6 5 4 3 3 3 2 2 2 2 3 4 2 2 4 5 6 6
17 18 17 19 20 19 16 14 13 13 12 13 12 15 17 12 11 11 10 10 9 8 7 6 7 6 5 4 4 3 2 2 3 3 3 2 4 4 2 4 5 6 7
17 17 18 19 20 21 20 19 14 13 13 13 13 16 17 14 13 12 11 10 9 8 8 6 7 5 5 4 4 3 2 3 3 4 4 3 4 7 6 5 5 6 7
16 16 17 15 19 21 19 18 14 13 14 13 13 13 17 16 14 12 10 10 9 8 8 8 7 6 5 5 4 4 3 3 4 5 4 4 3 3 7 9 8 7 7
15 15 15 17 19 20 19 15 15 13 14 12 13 13 16 17 16 13 10 10 11 9 8 8 7 6 6 6 4 4 4 4 4 5 5 5 4 3 3 6 9 9 6
12 11 13 14 17 16 14 13 12 14 13 13 13 14 17 16 18 15 11 12 12 10 9 9 9 6 6 7 6 5 4 4 4 4 5 4 4 4 4 3 3 5 6
12 10 9 11 12 12 11 12 12 13 12 12 12 15 17 17 18 16 12 13 13 12 12 12 9 10 7 8 6 5 4 4 5 4 4 4 5 4 3 2 2 2 3
16 14 10 8 9 12 10 10 10 10 10 11 10 12 15 16 17 15 16 13 14 12 14 14 12 8 6 8 6 5 5 5 5 4 4 4 4 3 3 3 4 4 4
19 18 13 9 6 9 10 7 6 7 6 8 10 10 13 15 16 16 17 16 16 15 14 16 15 14 9 9 6 6 6 7 6 6 6 4 3 3 4 4 5 5 6
20 18 17 13 7 4 7 8 10 8 9 9 8 9 12 15 16 16 16 17 16 14 15 16 15 13 12 11 7 5 3 3 6 6 6 6 4 4 4 4 5 6 6
20 18 18 16 12 7 4 7 9 10 8 6 7 10 12 12 15 16 16 15 15 14 15 16 16 15 12 11 9 6 5 2 3 5 6 6 6 5 5 5 5 6 6
20 19 18 18 16 12 6 5 8 10 10 9 8 8 9 8 11 15 15 15 15 14 16 16 16 18 14 13 10 8 7 7 6 5 5 5 6 5 5 5 5 6 5
Wind_Direction
180 172 162 178 174 173 169 160 148 141 140 137 131 126 123 120 112 106 110 112 109 102 91 83 80 80 77 74 72 68 64 60 58 58 56 52 69 83 74 59 51 75 64
165 171 164 176 175 175 173 166 155 150 150 148 141 137 133 126 114 101 104 118 112 102 92 85 79 76 77 76 73 69 66 62 58 54 52 68 60 75 77 67 55 67 66
167 170 171 177 175 175 174 171 165 163 161 158 152 149 143 132 118 104 100 106 107 101 97 91 85 80 77 74 71 67 66 65 61 52 36 74 70 66 81 81 73 69 67
174 174 178 174 178 177 176 173 173 177 175 167 160 152 142 133 123 116 109 105 103 100 96 93 93 90 82 73 66 61 57 58 56 22 73 71 74 66 72 86 83 72 69
177 181 175 173 183 182 179 176 178 184 184 173 155 145 139 132 126 127 128 117 111 107 105 102 102 99 92 83 76 69 60 53 42 44 69 76 82 71 69 77 91 85 75
179 183 175 177 182 185 185 185 185 186 183 168 155 149 145 142 141 148 157 141 131 128 126 123 117 106 97 89 83 77 70 55 38 63 63 64 83 77 70 70 81 90 85
179 184 182 182 181 182 187 192 192 189 179 168 164 162 160 159 162 172 172 157 147 140 137 132 122 115 108 98 90 82 73 59 58 69 67 64 63 74 72 67 71 79 82
186 187 189 186 190 183 185 189 187 183 175 172 171 170 172 175 179 181 178 167 159 154 146 136 131 127 118 110 100 90 82 71 88 77 73 67 41 61 67 63 64 71 77
195 195 197 196 197 194 190 188 186 179 176 176 177 176 177 176 180 182 180 177 172 163 150 144 138 129 121 112 102 91 80 60 78 71 63 52 24 48 56 54 54 58 63
205 206 205 205 204 203 200 196 195 187 181 179 179 174 164 166 176 177 180 184 177 164 155 146 137 127 116 105 98 91 83 68 68 69 53 40 20 41 52 50 51 54 56
214 212 210 209 210 210 208 201 201 194 188 180 180 163 163 182 185 181 188 185 177 163 158 149 139 124 116 105 94 91 80 56 63 52 43 17 9 30 56 59 58 65 72
212 210 209 210 209 209 206 204 208 205 200 198 194 182 185 186 182 182 172 196 165 155 159 153 139 133 144 129 112 115 74 65 57 51 39 1 350 1 73 91 90 91 90
219 208 209 210 208 206 202 202 203 203 203 201 195 187 182 178 174 183 178 176 165 163 164 151 153 165 156 132 122 100 87 80 64 58 39 352 334 328 117 122 113 105 102
231 218 209 208 209 208 205 201 200 199 200 197 193 186 182 180 181 181 182 179 174 172 163 161 164 155 141 126 116 113 109 97 84 78 53 340 325 313 154 125 115 113 110
237 229 216 207 208 207 208 206 204 201 200 198 193 192 190 185 185 183 181 180 180 174 171 166 163 157 153 144 136 136 127 115 121 131 117 352 331 311 146 136 130 121 114
236 230 218 211 209 206 206 207 207 205 201 200 195 195 194 190 187 185 183 183 182 179 173 170 164 162 157 147 141 136 144 140 134 146 135 102 23 3 95 119 125 128 122
239 232 221 215 209 209 208 209 207 206 203 201 199 197 196 194 190 186 185 185 182 174 166 163 160 159 152 149 151 156 157 150 141 137 135 127 86 46 47 74 90 97 99
251 238 226 215 212 212 211 211 208 206 205 204 201 198 198 196 191 187 185 186 177 172 172 169 165 160 160 164 163 159 150 137 127 126 119 114 95 76 59 45 50 66 80
265 248 231 217 214 213 213 214 213 209 207 207 204 200 198 195 192 189 188 181 174 175 179 173 171 165 165 158 147 139 134 133 130 122 109 95 85 83 83 63 47 45 59
299 273 244 225 218 213 210 215 217 215 211 211 209 204 197 194 191 189 186 179 175 175 179 179 168 162 153 142 129 118 118 139 152 132 119 100 86 83 82 86 74 58 53
341 318 277 244 223 209 203 206 211 215 214 215 215 210 203 196 191 190 184 179 180 182 183 179 166 160 154 152 139 129 127 148 161 147 130 115 104 92 86 93 105 115 93
1 352 329 281 242 220 213 207 210 214 219 220 219 218 213 205 196 193 187 183 184 184 185 184 175 171 162 182 170 152 163 175 183 174 154 131 121 119 116 108 115 126 127
9 360 350 330 276 236 225 222 216 216 223 215 216 217 218 217 208 202 195 188 188 187 188 188 187 179 174 188 213 191 179 183 160 175 184 173 152 142 141 135 130 128 121
12 7 7 3 346 269 223 219 218 221 226 223 216 214 212 217 218 213 206 198 193 193 191 190 191 191 183 181 194 232 258 174 163 160 181 192 186 167 156 155 150 142 134
18 17 16 19 18 359 260 231 230 237 246 251 234 223 214 210 217 217 215 208 200 199 196 189 190 194 196 191 182 175 184 198 204 160 162 173 185 181 171 169 162 155 147
26 26 24 25 24 13 346 283 255 252 253 254 246 236 221 211 214 217 217 213 207 204 200 195 193 197 200 201 193 182 174 176 188 181 155 158 170 164 173 176 177 166 161